loading
|

MIDAS 3 DEB, 6215

Orbit data source: Space-Track

MIDAS 3 DEB, 6215 is space debris originally from a launch on Wed, 12 Jul 1961 UTC launched from the Air Force Western Test Range (AFWTR). Debris objects in space refer to the collection of defunct objects orbiting the Earth. Examples of debris include non-operational satellites, rocket bodies, and fragments generated from explosions, collisions, or faulty payload assembly.

Loading next visibility...
Loading greatness...
MIDAS 3 DEB details
Identifier
6215, 1961-018E
Orbit
Active
Last TLE update19 hours ago
Origin
Flag of USUSAF SSD (US)
ManufacturerUnknown
MissionSpacecraft
Bus & MotorUnknown bus, Unknown motor
MassUnknown
Launch date (UTC)
1961-07-12 (63 years ago)
Launch vehicleUnknown
Launch site
Air Force Western Test Range (AFWTR)
Object type
Payload
Rocket body
Debris
Shape & HBRUnknown
Radar Cross SectionMedium (>0.1 m² and <1 m²)

Expand to show TLE details & history

TLE from 19 hours ago
0 MIDAS 3 DEB
1 06215U 61018E   24279.13810004  .00000024  00000-0  81382-2 0  9991
2 06215  91.1025 177.0627 0055717 188.2816 171.7140  8.90941209324690
Epoch: 2024-10-05T03:18Z
Definitive object data (Epoch: 2024-10-05T03:18:51.843Z)
Latitude0.00001°
Longitude113.04797°
Altitude3,507.149 km
Speed6.333 km/s
True Right ascension11h 48m 15s
True Declination0° 00' 00"
Sunlit
Object was in daylight at TLE epoch
Predictive object data (real-time)
Latitude-8.2033°
Longitude113.23933°
Altitude3,507.149 km
Speed6.333 km/s
Apparent Right ascension09h 49m 13s
Apparent Declination-31° 44' 16"
Sunlit
Object is in daylight
Predictive observer data (real-time)
Local Sidereal Time16:06:44
Azimuth246.894° WSW
Elevation-22.789°
Doppler factor1
Orbital elements
Apogee3,503.227 km
Perigee3,393.725 km
Semi-major axis9,826.613 km
Eccentricity0.0055717
Inclination91.1025°
RAAN177.0627°
Arg. of periapsis188.2816°
True anomaly171.80538°
Mean anomaly171.714°
Eccentric anomaly171.75975°
Mean motion2.22811 °/min
BSTAR0.0081382
Period161.57 mins
No data available
No data available

MIDAS 3 DEB Visibility forecast

Observer location: 39.9160978°, -105.1181434

MIDAS 3 DEB is not visible in the next 10 days
Span
Click to sort rows by Start time (UTC) header in descending order
Start Az.
Max El. time (UTC)
Max El. Az.
Max El.
End time (UTC)
End Az.